Погода в Дару

Папуа-Новая Гвинея     8°10′53″S   141°52′24″E
темп.,
°C
ветер,
м/с
пор.,
м/с
влажн.,
%
обл.,
%
осадки,
мм/ч
давл.,
гПа
погр.,
м
10 августа, ср
ср1001:00+23юв3129538 0.1 1011702
04:00+22юв2119641 0.2 1010706
07:00+22юв1109735 0.0 1011625
10:00+26вюв3777100 0.2 1012932
13:00+27юв367783 0.8 10101035
16:00+27юв367676 1.8 1009989
19:00+24юв398970 0.8 1011724
22:00+23юв3108848 0.8 1013761
11 августа, чт
чт1101:00+23юв31087100 0.0 1012698
04:00+23юв2109092 0.0 1011654
07:00+22юв2109323 0.0 1012594
10:00+27юв367079 0.1 10131063
13:00+28юв3565100 0.4 10111191
16:00+27в2577100 1.6 1009666
19:00+25юв2883100 0.6 1010368
22:00+23юв289097 0.6 1013337
12 августа, пт
пт1201:00+22ююв189614 0.0 1012370
04:00+22ю1896100 0.0 1011399
07:00+23ююв2993100 0.0 1012528
10:00+25юв378097 0.0 1013701
13:00+29юв246459 0.0 10101204
16:00+26ююв368867 2.0 1009595
19:00+23юв28978 3.3 1011388
22:00+22юв199963 3.3 1013447
13 августа, сб
сб1301:00+21юв1999100 0.0 1012358
04:00+21ююв1999100 0.0 1011340
07:00+21ююв1899100 0.0 1013293
10:00+26юв3580100 0.3 1014844
13:00+29юв2365100 0.7 10111248
16:00+26ююв2385100 2.9 1010479
19:00+23вюв1193100 1.2 101111
22:00+22юв169795 1.3 1013170
14 августа, вс
вс1401:00+21вюв1598100 0.0 1012142
04:00+21ююв149999 0.0 1011146
07:00+21ююв1499100 0.0 1012112
10:00+26ююв248338 0.3 1013706
13:00+30ююв245964 0.9 10101461
16:00+28вюв2668100 1.7 1008406
19:00+25ююв287145 0.0 1010369
22:00+22юв289019 0.0 1012323